Location: French Creek State Gamelands
(40.1750°N, 75.7969°W)
Time: 04:18:37
(UTC-04:00)

ISS - All Passes

Search period start: 30 June 2015 00:00
Search period end: 10 July 2015 00:00
Orbit: 398 x 403 km, 51.6° (Epoch: 30 June)

Date Brightness Start Highest point End Pass type
(mag) Time Alt. Az. Time Alt. Az. Time Alt. Az.
30 Jun - 09:45:53 10° SSW 09:48:54 37° SE 09:51:57 10° ENE daylight
30 Jun - 11:22:31 10° W 11:25:22 27° NNW 11:28:12 10° NE daylight
30 Jun - 13:01:20 10° NNW 13:02:36 12° N 13:03:51 10° NNE daylight
30 Jun - 14:38:16 10° NNW 14:40:04 14° NNE 14:41:54 10° NE daylight
30 Jun - 16:13:56 10° NW 16:17:05 48° NNE 16:20:14 10° ESE daylight
30 Jun - 17:50:59 10° W 17:53:16 17° SW 17:55:28 10° S daylight
01 Jul - 08:53:16 10° S 08:55:35 19° SE 08:57:58 10° E daylight
01 Jul - 10:28:38 10° WSW 10:31:46 45° NNW 10:34:55 10° NE daylight
01 Jul - 12:07:01 10° NW 12:08:49 14° NNW 12:10:34 10° NNE daylight
01 Jul - 13:45:00 10° NNW 13:46:17 12° N 13:47:36 10° NNE daylight
01 Jul - 15:20:39 10° NW 15:23:30 28° NNE 15:26:23 10° E daylight
01 Jul - 16:56:57 10° WNW 16:59:56 34° SW 17:02:55 10° SSE daylight
02 Jul - 09:35:01 10° SW 09:38:16 88° NW 09:41:31 10° NE daylight
02 Jul - 11:12:44 10° WNW 11:15:03 18° NNW 11:17:21 10° NNE daylight
02 Jul - 12:51:28 10° NNW 12:52:27 11° N 12:53:28 10° NNE daylight
02 Jul - 14:27:23 10° NNW 14:29:50 19° NNE 14:32:18 10° ENE daylight
02 Jul - 16:03:18 10° NW 16:06:32 74° SW 16:09:46 10° SE daylight
03 Jul - 08:41:44 10° SSW 08:44:49 43° SE 08:47:57 10° ENE daylight
03 Jul - 10:18:35 10° W 10:21:21 25° NNW 10:24:06 10° NNE daylight
03 Jul - 11:57:26 10° NNW 11:58:37 11° N 11:59:48 10° NNE daylight
03 Jul - 13:34:09 10° NNW 13:36:04 15° NNE 13:38:02 10° NE daylight
03 Jul - 15:09:51 10° NW 15:13:02 55° NNE 15:16:14 10° ESE daylight
03 Jul - 16:47:10 10° W 16:49:09 15° SW 16:51:03 10° SSW daylight
04 Jul - 07:48:55 10° S 07:51:27 22° SE 07:54:02 10° E daylight
04 Jul - 09:24:36 10° WSW 09:27:42 40° NNW 09:30:47 10° NE daylight
04 Jul - 11:03:07 10° NW 11:04:47 13° NNW 11:06:26 10° NNE daylight
04 Jul - 12:40:51 10° NNW 12:42:15 12° N 12:43:41 10° NE daylight
04 Jul - 14:16:29 10° NW 14:19:26 31° NNE 14:22:24 10° E daylight
04 Jul - 15:52:55 10° WNW 15:55:49 29° SW 15:58:40 10° SSE daylight
05 Jul - 06:57:18 10° SE 06:58:07 11° SE 06:59:04 10° ESE daylight
05 Jul - 08:30:53 10° WSW 08:34:07 76° NW 08:37:23 10° NE daylight
05 Jul - 10:08:46 10° WNW 10:10:58 17° NNW 10:13:10 10° NNE daylight
05 Jul - 11:47:21 10° NNW 11:48:24 11° N 11:49:26 10° NNE daylight
05 Jul - 13:23:12 10° NNW 13:25:44 21° NNE 13:28:18 10° ENE daylight
05 Jul - 14:59:10 10° WNW 15:02:24 63° SW 15:05:35 10° SE daylight
06 Jul - 07:37:29 10° SW 07:40:38 51° SE 07:43:49 10° ENE daylight
06 Jul - 09:14:31 10° W 09:17:12 23° NNW 09:19:53 10° NNE daylight
06 Jul - 10:53:24 10° NNW 10:54:31 11° N 10:55:38 10° NNE daylight
06 Jul - 12:29:55 10° NNW 12:31:57 15° NNE 12:34:01 10° NE daylight
06 Jul - 14:05:38 10° NW 14:08:52 64° NE 14:12:05 10° ESE daylight
06 Jul - 15:43:18 10° W 15:44:56 13° SW 15:46:27 10° SSW daylight
07 Jul - 06:44:30 10° S 06:47:12 25° SE 06:49:57 10° ENE daylight
07 Jul - 08:20:28 10° W 08:23:30 36° NNW 08:26:33 10° NE daylight
07 Jul - 09:59:04 10° NW 10:00:38 13° N 10:02:10 10° NNE daylight
07 Jul - 11:36:36 10° NNW 11:38:06 13° N 11:39:39 10° NE daylight
07 Jul - 13:12:13 10° NW 13:15:15 35° NNE 13:18:16 10° E daylight
07 Jul - 14:48:47 10° WNW 14:51:33 25° SW 14:54:17 10° SSE daylight
08 Jul - 05:52:22 10° SSE 05:53:49 13° SE 05:55:23 10° ESE daylight
08 Jul - 07:26:39 10° WSW 07:29:53 66° NW 07:33:07 10° NE daylight
08 Jul - 09:04:40 10° WNW 09:06:46 16° NNW 09:08:51 10° NNE daylight
08 Jul - 10:43:07 10° NNW 10:44:12 11° N 10:45:18 10° NNE daylight
08 Jul - 12:18:53 10° NNW 12:21:31 22° NNE 12:24:11 10° ENE daylight
08 Jul - 13:54:56 10° WNW 13:58:06 53° SW 14:01:15 10° SE daylight
09 Jul - 06:33:07 10° SW 06:36:19 60° SE 06:39:32 10° ENE daylight
09 Jul - 08:10:21 10° WNW 08:12:57 21° NNW 08:15:32 10° NNE daylight
09 Jul - 09:49:14 10° NNW 09:50:17 11° N 09:51:20 10° NNE daylight
09 Jul - 11:25:34 10° NNW 11:27:43 16° NNE 11:29:53 10° ENE daylight
09 Jul - 13:01:19 10° NW 13:04:33 74° NE 13:07:48 10° ESE daylight
09 Jul - 14:39:30 10° WSW 14:40:35 11° SW 14:41:32 10° SSW daylight
